STARLINK-1477, 45754

Orbit data source: Space-Track

STARLINK-1477, 45754 is a payload satellite owned by SpaceX/Seattle (US) in LEO that was launched on Sat, 13 Jun 2020 UTC via an FALCON 9 launch vehicle from the Air Force Eastern Test Range (AFETR). Payload-class satellites include a variety of spacecraft equipped with specific instruments for various scientific and technological missions. These include communications satellites like Starlink; space stations such as the ISS; scientific satellites like the Hubble; Earth observation satellites from companies like Planet Labs, Umbra, and HawkEye 360; GPS; miniature CubeSats for education and research; and military/defense satellites.

Loading next visibility...
Identifier
45754, 2020-038AA
Orbit
LEO
Country
Flag of USUS
Related business
Manufacturer
SpaceX/Seattle
Mission
Partially operational Commercial Communications
Bus & Motor
STARLINK, Unknown motor
Mass
260 kg wet, ~248 kg dry
Launch date (UTC)
2020-06-13 (6 years ago)
Launch vehicle
FALCON 9
Launch site
Air Force Eastern Test Range (AFETR)
Object type
Payload
Rocket body
Debris
Shape & HBR
Box + 1 Pan, 10.1 m
Radar Cross Section
13.562 m², Large (>1 m²)

Expand to show TLE details & history
Last TLE update: 5 hours ago

TLE from 5 hours ago
0 STARLINK-1477
1 45754U 20038AA  26125.79655613  .00025103  00000-0  12554-2 0  9996
2 45754  53.0506 312.8020 0002250 145.2590 214.8551 15.17305191325196
Epoch: 2026-05-05T19:07Z
TLE epoch observation values (Epoch: 2026-05-05T19:07:02.449Z)
Latitude
-0.00003°
Longitude
162.37552°
Altitude
516.145 km
Speed
7.606 km/s
True Right ascension
20h 51m 12s
True Declination
0° 00' 00"
Sunlit
Object was in daylight at epoch
Visualization orbit readout
Latitude
Unknown
Longitude
Unknown
Altitude
Unknown
Speed
Unknown
Apparent Right ascension
Unknown
Apparent Declination
Unknown
Sunlit
N/A
Visualization observer readout
Local Sidereal Time
08:16:53
Azimuth
Unknown
Elevation
Unknown
Doppler factor
Unknown
Orbital elements
Apogee altitude
515.812 km
Perigee altitude
512.711 km
Semi-major axis
6,892.399 km
Eccentricity
0.00023
Inclination
53.0506°
RAAN
312.802°
Arg. of periapsis
145.259°
True anomaly
214.84037°
Mean anomaly
214.8551°
Eccentric anomaly
214.84773°
Mean motion
3.79304 °/min
Orbital period
94.91 mins
BSTAR
0.0012554
Loading maneuver chart data...
Computing Atmospheric mass density...

Documentation

Showing up to 5 results
|